Total_Precipitation_Accumulation
0.02 0.02 0.02 0.02 0.01 0.00 0.00 0.00 0.00 0.00 0.00 0.01 0.03 0.03 0.03 0.02 0.06 0.13 0.25 0.33 0.44 0.42 0.35 0.21 0.11 0.10 0.12 0.11 0.14 0.18 0.23 0.28 0.33 0.31 0.23 0.15 0.12 0.06 0.02 0.04 0.04 0.07 0.07
0.02 0.02 0.03 0.03 0.02 0.01 0.00 0.00 0.00 0.00 0.00 0.00 0.01 0.01 0.02 0.02 0.02 0.06 0.18 0.39 0.53 0.48 0.50 0.45 0.30 0.21 0.17 0.14 0.15 0.17 0.22 0.23 0.26 0.28 0.23 0.16 0.11 0.07 0.03 0.04 0.05 0.06 0.07
0.03 0.03 0.04 0.03 0.02 0.01 0.00 0.00 0.00 0.00 0.00 0.00 0.00 0.00 0.00 0.01 0.01 0.01 0.02 0.09 0.21 0.30 0.38 0.39 0.38 0.31 0.24 0.18 0.17 0.13 0.15 0.17 0.21 0.24 0.23 0.18 0.13 0.09 0.05 0.06 0.07 0.07 0.05
0.08 0.07 0.05 0.05 0.04 0.01 0.01 0.01 0.01 0.01 0.00 0.01 0.01 0.01 0.00 0.00 0.01 0.00 0.00 0.01 0.04 0.10 0.21 0.21 0.24 0.26 0.27 0.28 0.25 0.15 0.10 0.10 0.12 0.17 0.22 0.22 0.17 0.13 0.12 0.12 0.10 0.07 0.04
0.25 0.23 0.19 0.15 0.08 0.05 0.05 0.04 0.04 0.02 0.02 0.03 0.02 0.02 0.01 0.00 0.01 0.00 0.01 0.01 0.02 0.04 0.08 0.07 0.08 0.09 0.11 0.14 0.18 0.17 0.10 0.07 0.08 0.10 0.13 0.16 0.16 0.14 0.16 0.15 0.10 0.07 0.05
0.62 0.60 0.58 0.45 0.31 0.23 0.19 0.13 0.13 0.12 0.08 0.06 0.02 0.02 0.01 0.01 0.01 0.00 0.01 0.01 0.01 0.01 0.01 0.01 0.03 0.03 0.02 0.03 0.04 0.06 0.07 0.07 0.06 0.06 0.09 0.11 0.10 0.10 0.14 0.18 0.15 0.12 0.10
0.96 1.03 0.92 0.82 0.69 0.51 0.45 0.39 0.37 0.41 0.25 0.09 0.09 0.10 0.04 0.02 0.01 0.01 0.01 0.01 0.01 0.01 0.00 0.00 0.01 0.01 0.01 0.01 0.01 0.03 0.06 0.10 0.09 0.07 0.07 0.07 0.07 0.07 0.10 0.15 0.16 0.17 0.18
1.19 1.20 1.25 1.18 1.04 0.92 0.82 0.68 0.66 0.75 0.55 0.27 0.26 0.37 0.23 0.11 0.05 0.03 0.02 0.01 0.02 0.02 0.02 0.01 0.00 0.00 0.00 0.01 0.00 0.02 0.05 0.09 0.11 0.08 0.05 0.05 0.05 0.04 0.05 0.09 0.13 0.14 0.16
1.55 1.52 1.51 1.43 1.27 1.07 1.00 1.00 0.99 1.18 0.97 0.61 0.43 0.46 0.41 0.32 0.16 0.05 0.02 0.02 0.02 0.02 0.01 0.01 0.01 0.00 0.00 0.01 0.01 0.01 0.01 0.03 0.07 0.07 0.07 0.05 0.04 0.04 0.04 0.05 0.08 0.10 0.10
1.56 1.59 1.52 1.44 1.32 1.18 1.19 1.17 1.12 1.30 1.32 0.98 0.72 0.53 0.38 0.32 0.27 0.18 0.07 0.04 0.04 0.04 0.01 0.01 0.01 0.01 0.00 0.00 0.01 0.01 0.01 0.01 0.03 0.05 0.07 0.07 0.06 0.06 0.05 0.05 0.05 0.07 0.08
1.42 1.38 1.32 1.33 1.33 1.30 1.30 1.33 1.31 1.45 1.43 1.29 1.01 0.87 0.75 0.57 0.37 0.31 0.27 0.12 0.06 0.04 0.02 0.02 0.02 0.01 0.00 0.00 0.00 0.00 0.01 0.01 0.02 0.03 0.04 0.05 0.04 0.06 0.08 0.07 0.07 0.07 0.06
1.39 1.28 1.23 1.21 1.27 1.33 1.33 1.33 1.35 1.48 1.49 1.44 1.21 1.00 0.91 0.80 0.69 0.61 0.44 0.30 0.15 0.05 0.03 0.03 0.04 0.02 0.01 0.01 0.01 0.00 0.00 0.01 0.01 0.02 0.02 0.02 0.02 0.02 0.05 0.08 0.08 0.09 0.09
1.09 1.10 1.15 1.19 1.27 1.30 1.29 1.27 1.30 1.31 1.34 1.44 1.33 1.14 0.96 0.82 0.79 0.71 0.61 0.45 0.33 0.15 0.07 0.05 0.05 0.05 0.03 0.02 0.01 0.01 0.01 0.01 0.01 0.01 0.01 0.01 0.01 0.02 0.02 0.03 0.05 0.06 0.07
0.88 0.85 0.87 0.94 1.09 1.26 1.27 1.21 1.17 1.11 1.08 1.17 1.12 1.05 1.01 0.83 0.76 0.71 0.69 0.71 0.59 0.45 0.23 0.08 0.06 0.05 0.04 0.02 0.02 0.02 0.01 0.01 0.01 0.01 0.01 0.01 0.02 0.02 0.02 0.02 0.02 0.02 0.02
0.66 0.62 0.61 0.67 0.75 0.93 1.10 1.14 1.01 0.92 0.84 0.90 0.92 0.91 0.96 0.95 0.83 0.73 0.75 0.74 0.70 0.59 0.49 0.32 0.18 0.11 0.10 0.07 0.05 0.03 0.02 0.02 0.03 0.02 0.02 0.02 0.02 0.02 0.01 0.01 0.01 0.01 0.01
0.46 0.44 0.41 0.45 0.55 0.67 0.82 0.95 0.95 0.86 0.73 0.70 0.80 0.90 0.95 1.00 1.00 0.80 0.72 0.71 0.63 0.57 0.50 0.36 0.26 0.16 0.18 0.16 0.14 0.08 0.05 0.04 0.04 0.05 0.04 0.03 0.03 0.02 0.01 0.01 0.01 0.01 0.01
0.34 0.35 0.41 0.44 0.51 0.60 0.74 0.92 0.99 0.93 0.78 0.71 0.70 0.75 0.86 0.94 1.10 1.03 0.89 0.77 0.69 0.62 0.54 0.44 0.31 0.20 0.20 0.21 0.23 0.15 0.08 0.05 0.04 0.06 0.05 0.04 0.03 0.02 0.02 0.01 0.01 0.00 0.00
0.27 0.34 0.37 0.42 0.46 0.46 0.55 0.68 0.81 0.87 0.81 0.71 0.64 0.67 0.77 0.87 1.04 1.13 1.10 0.97 0.87 0.79 0.69 0.61 0.47 0.35 0.29 0.27 0.29 0.27 0.18 0.11 0.09 0.10 0.09 0.05 0.03 0.03 0.02 0.01 0.01 0.00 0.00
0.36 0.43 0.46 0.49 0.49 0.48 0.45 0.47 0.52 0.58 0.62 0.60 0.56 0.53 0.54 0.63 0.84 1.02 1.08 1.07 1.06 0.98 0.89 0.78 0.62 0.51 0.41 0.31 0.28 0.29 0.25 0.21 0.18 0.19 0.21 0.16 0.10 0.07 0.05 0.03 0.02 0.01 0.01
0.39 0.41 0.42 0.47 0.56 0.55 0.51 0.49 0.45 0.39 0.34 0.35 0.39 0.43 0.43 0.46 0.57 0.67 0.78 0.94 1.15 1.14 1.07 0.98 0.79 0.59 0.48 0.37 0.30 0.28 0.29 0.28 0.27 0.26 0.27 0.26 0.22 0.14 0.10 0.07 0.05 0.04 0.03
0.36 0.38 0.40 0.42 0.48 0.54 0.59 0.59 0.44 0.32 0.26 0.22 0.20 0.22 0.26 0.34 0.41 0.43 0.49 0.69 0.95 1.10 1.08 1.03 0.93 0.74 0.51 0.41 0.30 0.26 0.30 0.36 0.34 0.31 0.31 0.30 0.27 0.23 0.19 0.15 0.12 0.09 0.07
0.35 0.39 0.39 0.39 0.46 0.48 0.57 0.53 0.35 0.28 0.26 0.25 0.22 0.16 0.17 0.21 0.24 0.27 0.31 0.39 0.55 0.73 0.92 1.03 1.01 0.86 0.68 0.54 0.46 0.39 0.35 0.35 0.37 0.34 0.38 0.45 0.45 0.44 0.45 0.40 0.37 0.34 0.25
0.33 0.35 0.36 0.36 0.39 0.48 0.44 0.28 0.25 0.23 0.26 0.26 0.24 0.23 0.21 0.16 0.16 0.18 0.25 0.28 0.29 0.33 0.48 0.71 0.85 0.91 0.94 0.75 0.60 0.49 0.41 0.41 0.43 0.41 0.42 0.49 0.54 0.57 0.60 0.58 0.55 0.51 0.45
0.41 0.40 0.42 0.42 0.40 0.43 0.35 0.22 0.22 0.22 0.27 0.28 0.27 0.26 0.29 0.26 0.24 0.25 0.24 0.25 0.26 0.27 0.36 0.36 0.49 0.75 0.83 0.80 0.69 0.65 0.67 0.60 0.49 0.38 0.33 0.38 0.44 0.51 0.54 0.57 0.56 0.49 0.44
0.41 0.43 0.46 0.46 0.40 0.36 0.32 0.21 0.20 0.24 0.28 0.31 0.28 0.25 0.27 0.28 0.37 0.37 0.30 0.38 0.43 0.40 0.48 0.50 0.50 0.52 0.53 0.52 0.54 0.54 0.53 0.51 0.49 0.42 0.37 0.32 0.33 0.35 0.37 0.40 0.41 0.39 0.37
0.23 0.31 0.33 0.36 0.38 0.36 0.40 0.25 0.22 0.25 0.30 0.34 0.32 0.32 0.40 0.37 0.42 0.37 0.27 0.40 0.45 0.43 0.42 0.46 0.44 0.38 0.33 0.32 0.34 0.36 0.46 0.46 0.42 0.36 0.30 0.24 0.21 0.21 0.21 0.19 0.19 0.21 0.20